Regional Weather Roundup
Issued by NWS

Home | Current Version | Previous Version | Text Only | Print | Product List | Glossary On
Versions: 1 2 3 4 5 6 7 8 9 10 11 12 13 14 15 16 17 18 19 20 21 22 23 24 25 26 27 28 29 30 31 32 33 34 35 36 37 38 39 40 41 42 43 44 45 46 47 48 49 50
000
ASUS43 KLSX 190907
RWRMO

WEATHER SUMMARY FOR MISSOURI
NATIONAL WEATHER SERVICE SPRINGFIELD MO
400 AM CDT THU OCT 19 2017

NOTE: "FAIR" INDICATES FEW OR NO CLOUDS BELOW 12,000 FEET WITH NO
       SIGNIFICANT WEATHER AND/OR OBSTRUCTIONS TO VISIBILITY.
       CURRENT SKY AND/OR WEATHER CONDITIONS ARE NOT AVAILABLE FOR
       CHILLICOTHE AND FARMINGTON.

MOZ001>031-035>038-043-044-053-054-191000-
...NORTHERN AND WESTERN MISSOURI...

CITY           SKY/WX    TMP DP  RH WIND       PRES   REMARKS
KANSAS CTY INT CLEAR     51  48  89 S8        30.07S
KANSAS C DTWN  CLEAR     58  49  72 SW3       30.07S
LEE`S SUMMIT   CLEAR     58  49  72 SW10      30.09R
ST JOSEPH      FOG       44  44 100 CALM      30.05F VSB 1/4
CHILLICOTHE      N/A     49  48  97 CALM      30.08S
KIRKSVILLE     CLEAR     52  49  89 SW3       30.08F

$$
MOZ066>068-077>081-088>096-101>105-191000-
...SOUTHWEST MISSOURI...

CITY           SKY/WX    TMP DP  RH WIND       PRES   REMARKS
SPRINGFIELD    CLEAR     48  45  89 SE5       30.14S
JOPLIN         CLEAR     53  48  83 S6        30.13S
BRANSON        CLOUDY    48  46  93 CALM      30.16S

$$
MOZ032>034-039>042-045>050-055>058-069>072-191000-
...CENTRAL MISSOURI...

CITY           SKY/WX    TMP DP  RH WIND       PRES   REMARKS
COLUMBIA       CLEAR     52  46  80 S7        30.11S
JEFFERSON CITY CLEAR     50  45  83 CALM      30.12S
ROLLA          CLEAR     53  48  83 S10       30.15S
SEDALIA        CLEAR     59  50  72 SW10      30.12R
WHITEMAN AFB   CLEAR     52  47  83 S8        30.06S
WARRENSBURG    CLEAR     52  46  82 S5        30.10R
OSAGE BEACH    CLEAR     50  46  86 S3        30.14F

$$
MOZ051-052-059>065-191000-
...EAST CENTRAL MISSOURI...

CITY           SKY/WX    TMP DP  RH WIND       PRES   REMARKS
ST LOUIS INTL  CLEAR     58  49  72 SW3       30.13F
SPIRIT OF STL  CLEAR     49  47  93 CALM      30.13S
ST CHARLES     CLEAR     47  44  90 E5        30.12F

$$
MOZ072>076-082>087-097>100-106>115-191000-
...SOUTH CENTRAL AND SOUTHEAST MISSOURI...

CITY           SKY/WX    TMP DP  RH WIND       PRES   REMARKS
CAPE GIRARDEAU CLEAR     48  46  93 CALM      30.18S
FARMINGTON     CLEAR     56  46  69 CALM      30.17F
POPLAR BLUFF   CLEAR     47  46  97 CALM      30.18S
WEST PLAINS    CLEAR     52  46  80 S3        30.16F

$$



USA.gov is the U.S. government's official web portal to all federal, state and local government web resources and services.